Location: Bellflower
(33.8817°N, 118.1170°W)
Time: 22:16:47
(UTC+00:00)

SL-08 ROCKET BODY - Pass Details

Date: 23 November 2020
Orbit: 896 x 964 km, 82.9° (Epoch: 20 January)

Event Time Altitude Azimuth Distance (km) Brightness Sun altitude
Rises 12:35:45 0° 199° (SSW) 3,558 7.4 -24.0°
Reaches altitude 10° 12:38:16 10° 204° (SSW) 2,629 6.6 -23.5°
Maximum altitude 12:44:05 51° 279° (W) 1,171 4.5 -22.3°
Drops below altitude 10° 12:50:03 10° 355° (N) 2,686 6.6 -21.1°
Sets 12:52:39 0° 0° (N) 3,642 7.4 -20.6°
